Aeroporto :
LOGIN :

Iscrizione | Disclaimer

   EN    FR    IT 

 










Sommario :    VFR   VFR Marginale   IFR   IFR Intensivo   IFR Molto Intensivo
Visibilità : 
Base nubi : 
>= 8 km
>= 3000ft
5 / 8 km
1000 / 3000 ft
1500m / 5 km
500 / 1000 ft
800 / 1500m
200 / 500 ft
< 800m
< 200 ft
Simboli :   Temporali  Nebbia  Neve Forte  Precipitazioni Forti  Vento > 20 kt
SIGMETs :   Varie  Temporali  Ghiacco  Turbolenza  Onda orograficha  Ceneri Vulcaniche






- Altitudine del aeroporto : 123 ft
- Codice IATA : BLQ


LIPE - Bologna Guglielmo Marconi

ULTIMO METAR :
  • 231220Z 17007KT 130V200 9999 VCSH SCT050 24/15 Q1009

METARs OBSOLETI :
  • 231150Z 15004KT 090V210 9999 SCT050 24/15 Q1010
  • 231120Z 03004KT 340V090 9999 SCT060 23/15 Q1010
  • 231050Z 05005KT 360V080 9999 FEW050 24/16 Q1010
  • 231020Z 01004KT 330V070 CAVOK 23/16 Q1010
  • 230950Z VRB02KT CAVOK 22/15 Q1011

TAF TAF LIPE
Valido dal 23 a 12 ore il 24 a 12 ore UTC


231100Z 2312/2412 VRB05KT 9999 BKN050
TEMPO 2312/2316 SHRA



MetMap, La meteo Aeronautica in un colpo d'occhio ! - Copyright ORBIFLY Dicembre 2007 - Disclaimer

ORBIFLY MET'MAP TEAM :

Programmazione e sviluppo : Alexandra Zaïnal
Concezione : Baudouin d'Aumeries
Aiuto per la programmazione : Marc-Olivier Méhu
Supporto tecnico e logistico : Manuel Goepfert
Aiuto per la traduzione : Arnaldo La Scala

Contatto : metmap@orbifly.com




FONTI E CREDITI :

   NOAA